This is the latest recevied weather packets stored in our database for station/object AG1T-20. If no packets are shown the sender has not sent any weather packets the latest 10 day(s).
| Time | Temp. | Humidity | Pressure | Rain* | Wind** | Luminosity | Snow |
|---|---|---|---|---|---|---|---|
| 1788557404 | 28.89° C | 20% | 1017.2 hPa | 0 mm | - | 478 W/m² | - |
| 1788556804 | 28.33° C | 22% | 1017.5 hPa | 0 mm | - | 512 W/m² | - |
| 1788556204 | 28.89° C | 23% | 1017.1 hPa | 0 mm | - | 534 W/m² | - |
| 1788555605 | 28.33° C | 24% | 1017.6 hPa | 0 mm | - | 561 W/m² | - |
| 1788555005 | 28.33° C | 23% | 1017.5 hPa | 0 mm | - | 96 W/m² | - |
| 1788554404 | 28.33° C | 22% | 1017.7 hPa | 0 mm | - | 537 W/m² | - |
| 1788553804 | 27.78° C | 22% | 1018 hPa | 0 mm | - | 644 W/m² | - |
| 1788553204 | 27.78° C | 21% | 1018.2 hPa | 0 mm | - | 672 W/m² | - |
| 1788552604 | 27.22° C | 22% | 1018.5 hPa | 0 mm | - | 687 W/m² | - |
| 1788552004 | 27.22° C | 22% | 1018.6 hPa | 0 mm | - | 725 W/m² | - |
| 1788551404 | 27.22° C | 21% | 1018.6 hPa | 0 mm | - | 736 W/m² | - |
| 1788550804 | 27.78° C | 21% | 1018.4 hPa | 0 mm | - | 750 W/m² | - |
| 1788550204 | 27.22° C | 20% | 1019 hPa | 0 mm | - | 771 W/m² | - |
| 1788549605 | 27.22° C | 21% | 1018.9 hPa | 0 mm | - | 788 W/m² | - |
| 1788549004 | 27.22° C | 22% | 1019.1 hPa | 0 mm | - | 796 W/m² | - |
| 1788548404 | 26.67° C | 21% | 1019.4 hPa | 0 mm | - | 804 W/m² | - |
| 1788547805 | 26.67° C | 21% | 1019.6 hPa | 0 mm | - | 823 W/m² | - |
| 1788547205 | 27.22° C | 24% | 1019.3 hPa | 0 mm | - | 846 W/m² | - |
| 1788546605 | 26.67° C | 23% | 1019.7 hPa | 0 mm | - | 836 W/m² | - |
| 1788546005 | 26.11° C | 22% | 1020.2 hPa | 0 mm | - | 844 W/m² | - |
| 1788545405 | 26.11° C | 22% | 1020.3 hPa | 0 mm | - | 844 W/m² | - |
| 1788544805 | 26.11° C | 21% | 1020.4 hPa | 0 mm | - | 848 W/m² | - |
| 1788544205 | 25.56° C | 23% | 1020.7 hPa | 0 mm | - | 853 W/m² | - |
| 1788543605 | 26.11° C | 23% | 1020.6 hPa | 0 mm | - | 851 W/m² | - |
| 1788543005 | 25.56° C | 22% | 1020.6 hPa | 0 mm | - | 846 W/m² | - |
* Rain latest hour (hover to see other rain measurements)
** Current wind speed in m/s (hover to see current wind gust speed)